Location: ????
(33.1659°N, 35.6604°E)
Time: 02:07:59
(UTC+00:00)

ASTEX 1 - Pass Details

Date: 20 September 2019
Orbit: 720 x 744 km, 92.7° (Epoch: 19 October)

Event Time Altitude Azimuth Distance (km) Brightness Sun altitude
Rises 17:27:03 0° 357° (N) 3,135 6.9 -23.4°
Reaches altitude 10° 17:29:25 10° 351° (N) 2,210 6.2 -23.9°
Maximum altitude 17:34:02 44° 280° (W) 996 4.5 -24.8°
Drops below altitude 10° 17:38:37 10° 209° (SSW) 2,202 6.0 -25.7°
Sets 17:40:59 0° 203° (SSW) 3,122 6.7 -26.1°
